Time,TemperatureF,DewpointF,PressureIn,WindDirection,WindDirectionDegrees,WindSpeedMPH,WindSpeedGustMPH,Humidity,HourlyPrecipIn,Conditions,Clouds,dailyrainin,SoftwareType,DateUTC
2013-02-22 04:50:00,61.9,60.7,30.03,ENE,66,0.0,0.0,96,0.00,,,0.00,Wunderground v.1.15,2013-02-22 09:50:00,
2013-02-22 05:00:00,61.9,60.7,30.03,ENE,66,0.0,0.0,96,0.00,,,0.00,Wunderground v.1.15,2013-02-22 10:00:00,
2013-02-22 05:10:00,61.7,60.5,30.03,ENE,67,0.0,0.0,96,0.00,,,0.00,Wunderground v.1.15,2013-02-22 10:10:00,
2013-02-22 05:15:00,61.5,60.3,30.03,ENE,66,0.0,0.0,96,0.00,,,0.00,Wunderground v.1.15,2013-02-22 10:15:00,
2013-02-22 05:25:00,61.5,60.3,30.04,ENE,66,0.0,0.0,96,0.00,,,0.00,Wunderground v.1.15,2013-02-22 10:25:00,
2013-02-22 05:30:00,61.4,60.2,30.04,ENE,66,0.0,0.0,96,0.00,,,0.00,Wunderground v.1.15,2013-02-22 10:30:00,
2013-02-22 05:35:00,61.3,60.2,30.04,ENE,66,0.0,0.0,96,0.00,,,0.00,Wunderground v.1.15,2013-02-22 10:35:00,
2013-02-22 05:45:00,61.0,59.9,30.04,ENE,67,0.0,0.0,96,0.00,,,0.00,Wunderground v.1.15,2013-02-22 10:45:00,
2013-02-22 05:50:00,61.0,59.9,30.04,ENE,66,0.0,0.0,96,0.00,,,0.00,Wunderground v.1.15,2013-02-22 10:50:00,
2013-02-22 05:55:00,60.7,59.6,30.04,ENE,67,0.0,0.0,96,0.00,,,0.00,Wunderground v.1.15,2013-02-22 10:55:00,
2013-02-22 06:00:00,60.8,59.7,30.04,ENE,66,0.0,0.0,96,0.00,,,0.00,Wunderground v.1.15,2013-02-22 11:00:00,
2013-02-22 06:10:00,60.5,59.4,30.04,ENE,66,0.0,0.0,96,0.00,,,0.00,Wunderground v.1.15,2013-02-22 11:10:00,
2013-02-22 06:15:00,60.4,59.3,30.05,ENE,66,0.0,0.0,96,0.00,,,0.00,Wunderground v.1.15,2013-02-22 11:15:00,
2013-02-22 06:20:00,60.2,59.1,30.05,ENE,66,0.0,0.0,96,0.00,,,0.00,Wunderground v.1.15,2013-02-22 11:20:00,
2013-02-22 06:25:00,60.2,59.1,30.05,ENE,67,0.0,0.0,96,0.00,,,0.00,Wunderground v.1.15,2013-02-22 11:25:00,
2013-02-22 06:30:00,60.1,59.0,30.05,ENE,66,0.0,0.0,96,0.00,,,0.00,Wunderground v.1.15,2013-02-22 11:30:00,
2013-02-22 06:40:00,60.2,59.1,30.06,ENE,66,0.0,0.0,96,0.00,,,0.00,Wunderground v.1.15,2013-02-22 11:40:00,
2013-02-22 06:45:00,60.2,59.1,30.06,ENE,66,0.0,0.0,96,0.00,,,0.00,Wunderground v.1.15,2013-02-22 11:45:00,
2013-02-22 06:50:00,60.2,59.1,30.06,ENE,67,0.0,0.0,96,0.00,,,0.00,Wunderground v.1.15,2013-02-22 11:50:00,
2013-02-22 06:55:00,60.2,59.1,30.06,ENE,66,0.0,0.0,96,0.00,,,0.00,Wunderground v.1.15,2013-02-22 11:55:00,
2013-02-22 07:00:00,60.1,59.0,30.06,ENE,66,0.0,0.0,96,0.00,,,0.00,Wunderground v.1.15,2013-02-22 12:00:00,
2013-02-22 07:05:00,59.9,58.8,30.06,ENE,67,0.0,0.0,96,0.00,,,0.00,Wunderground v.1.15,2013-02-22 12:05:00,
2013-02-22 07:10:00,59.7,58.6,30.06,ENE,66,0.0,0.0,96,0.00,,,0.00,Wunderground v.1.15,2013-02-22 12:10:00,
2013-02-22 07:15:00,59.7,58.6,30.07,ENE,67,0.0,0.0,96,0.00,,,0.00,Wunderground v.1.15,2013-02-22 12:15:00,
2013-02-22 07:20:00,59.9,58.8,30.07,ENE,67,0.0,0.0,96,0.00,,,0.00,Wunderground v.1.15,2013-02-22 12:20:00,
2013-02-22 07:25:00,59.9,58.8,30.07,ENE,66,0.0,0.0,96,0.00,,,0.00,Wunderground v.1.15,2013-02-22 12:25:00,
2013-02-22 07:30:00,59.9,58.8,30.07,ENE,66,0.0,0.0,96,0.00,,,0.00,Wunderground v.1.15,2013-02-22 12:30:00,
2013-02-22 07:35:00,59.9,58.8,30.07,ENE,66,0.0,0.0,96,0.00,,,0.00,Wunderground v.1.15,2013-02-22 12:35:00,
2013-02-22 07:40:00,60.0,58.9,30.07,ENE,66,0.0,0.0,96,0.00,,,0.00,Wunderground v.1.15,2013-02-22 12:40:00,
2013-02-22 07:46:00,60.1,59.0,30.07,ENE,67,0.0,0.0,96,0.00,,,0.00,Wunderground v.1.15,2013-02-22 12:46:00,
2013-02-22 07:51:00,60.4,59.3,30.07,ENE,66,0.0,0.0,96,0.00,,,0.00,Wunderground v.1.15,2013-02-22 12:51:00,
2013-02-22 07:56:00,60.8,59.7,30.07,ENE,66,0.0,0.0,96,0.00,,,0.00,Wunderground v.1.15,2013-02-22 12:56:00,
2013-02-22 08:01:00,61.1,60.0,30.07,ENE,66,0.0,0.0,96,0.00,,,0.00,Wunderground v.1.15,2013-02-22 13:01:00,
2013-02-22 08:06:00,61.4,60.2,30.07,ENE,66,0.0,0.0,96,0.00,,,0.00,Wunderground v.1.15,2013-02-22 13:06:00,
2013-02-22 08:11:00,61.6,60.4,30.08,ENE,67,0.0,0.0,96,0.00,,,0.00,Wunderground v.1.15,2013-02-22 13:11:00,
2013-02-22 08:16:00,62.0,60.8,30.08,ENE,66,0.0,0.0,96,0.00,,,0.00,Wunderground v.1.15,2013-02-22 13:16:00,
2013-02-22 08:21:00,62.7,61.5,30.08,ENE,66,0.0,0.0,96,0.00,,,0.00,Wunderground v.1.15,2013-02-22 13:21:00,
2013-02-22 08:26:00,63.8,62.3,30.08,East,96,0.0,1.0,95,0.00,,,0.00,Wunderground v.1.15,2013-02-22 13:26:00,
2013-02-22 08:31:00,64.8,63.3,30.08,WSW,252,0.0,0.0,95,0.00,,,0.00,Wunderground v.1.15,2013-02-22 13:31:00,
2013-02-22 08:36:00,65.6,64.1,30.08,SW,224,0.0,0.0,95,0.00,,,0.00,Wunderground v.1.15,2013-02-22 13:36:00,
2013-02-22 08:41:00,66.2,64.7,30.08,NNW,343,0.0,3.0,95,0.00,,,0.00,Wunderground v.1.15,2013-02-22 13:41:00,
2013-02-22 08:47:00,67.0,65.5,30.08,West,264,1.0,3.0,95,0.00,,,0.00,Wunderground v.1.15,2013-02-22 13:47:00,
2013-02-22 08:52:00,67.8,66.3,30.08,WNW,286,0.0,1.0,95,0.00,,,0.00,Wunderground v.1.15,2013-02-22 13:52:00,
2013-02-22 08:57:00,68.8,67.0,30.09,WNW,285,0.0,1.0,94,0.00,,,0.00,Wunderground v.1.15,2013-02-22 13:57:00,
2013-02-22 09:02:00,70.0,66.9,30.08,NE,41,0.0,2.0,90,0.00,,,0.00,Wunderground v.1.15,2013-02-22 14:02:00,
2013-02-22 09:07:00,71.1,67.4,30.08,SSE,160,0.0,2.0,88,0.00,,,0.00,Wunderground v.1.15,2013-02-22 14:07:00,
2013-02-22 09:12:00,71.9,67.5,30.08,NNE,16,0.0,4.0,86,0.00,,,0.00,Wunderground v.1.15,2013-02-22 14:12:00,
2013-02-22 09:17:00,72.5,67.4,30.08,East,87,1.0,4.0,84,0.00,,,0.00,Wunderground v.1.15,2013-02-22 14:17:00,
2013-02-22 09:22:00,72.7,67.6,30.08,NE,52,0.0,2.0,84,0.00,,,0.00,Wunderground v.1.15,2013-02-22 14:22:00,
2013-02-22 09:27:00,73.2,67.7,30.08,NNE,25,0.0,2.0,83,0.00,,,0.00,Wunderground v.1.15,2013-02-22 14:27:00,
2013-02-22 09:32:00,73.6,67.4,30.08,East,96,1.0,2.0,81,0.00,,,0.00,Wunderground v.1.15,2013-02-22 14:32:00,
2013-02-22 09:37:00,73.7,67.5,30.08,NNW,343,0.0,3.0,81,0.00,,,0.00,Wunderground v.1.15,2013-02-22 14:37:00,
2013-02-22 09:42:00,74.1,68.3,30.08,ENE,67,1.0,1.0,82,0.00,,,0.00,Wunderground v.1.15,2013-02-22 14:42:00,
2013-02-22 09:47:00,74.3,67.7,30.08,SE,127,2.0,2.0,80,0.00,,,0.00,Wunderground v.1.15,2013-02-22 14:47:00,
2013-02-22 09:52:00,74.6,68.0,30.08,SE,129,0.0,3.0,80,0.00,,,0.00,Wunderground v.1.15,2013-02-22 14:52:00,
2013-02-22 09:57:00,74.9,67.6,30.08,WSW,255,1.0,4.0,78,0.00,,,0.00,Wunderground v.1.15,2013-02-22 14:57:00,
2013-02-22 10:02:00,75.0,67.3,30.08,NE,53,2.0,6.0,77,0.00,,,0.00,Wunderground v.1.15,2013-02-22 15:02:00,
2013-02-22 10:07:00,75.0,67.3,30.07,NNE,12,2.0,6.0,77,0.00,,,0.00,Wunderground v.1.15,2013-02-22 15:07:00,
2013-02-22 10:12:00,75.5,67.4,30.07,West,278,1.0,4.0,76,0.00,,,0.00,Wunderground v.1.15,2013-02-22 15:12:00,
2013-02-22 10:17:00,75.8,67.3,30.08,WNW,297,0.0,4.0,75,0.00,,,0.00,Wunderground v.1.15,2013-02-22 15:17:00,
2013-02-22 10:23:00,76.0,67.5,30.08,West,264,2.0,2.0,75,0.00,,,0.00,Wunderground v.1.15,2013-02-22 15:23:00,
2013-02-22 10:28:00,76.1,67.2,30.08,NW,312,0.0,3.0,74,0.00,,,0.00,Wunderground v.1.15,2013-02-22 15:28:00,
2013-02-22 10:33:00,76.4,67.1,30.08,ENE,72,2.0,3.0,73,0.00,,,0.00,Wunderground v.1.15,2013-02-22 15:33:00,
2013-02-22 10:38:00,76.6,66.9,30.08,NNW,336,0.0,6.0,72,0.00,,,0.00,Wunderground v.1.15,2013-02-22 15:38:00,
2013-02-22 10:43:00,77.3,68.4,30.07,North,6,0.0,3.0,74,0.00,,,0.00,Wunderground v.1.15,2013-02-22 15:43:00,
2013-02-22 10:48:00,78.0,67.4,30.07,WNW,284,0.0,4.0,70,0.00,,,0.00,Wunderground v.1.15,2013-02-22 15:48:00,
2013-02-22 10:53:00,78.4,67.4,30.07,West,271,0.0,4.0,69,0.00,,,0.00,Wunderground v.1.15,2013-02-22 15:53:00,
2013-02-22 10:58:00,78.6,68.4,30.07,West,265,0.0,4.0,71,0.00,,,0.00,Wunderground v.1.15,2013-02-22 15:58:00,
2013-02-22 11:03:00,78.8,67.3,30.07,East,86,4.0,5.0,68,0.00,,,0.00,Wunderground v.1.15,2013-02-22 16:03:00,
2013-02-22 11:08:00,78.9,66.6,30.07,ENE,75,1.0,5.0,66,0.00,,,0.00,Wunderground v.1.15,2013-02-22 16:08:00,
2013-02-22 11:13:00,79.4,67.5,30.07,West,263,1.0,2.0,67,0.00,,,0.00,Wunderground v.1.15,2013-02-22 16:13:00,
2013-02-22 11:18:00,79.4,66.6,30.07,ENE,67,2.0,3.0,65,0.00,,,0.00,Wunderground v.1.15,2013-02-22 16:18:00,
2013-02-22 11:23:00,79.0,67.5,30.07,NE,46,0.0,3.0,68,0.00,,,0.00,Wunderground v.1.15,2013-02-22 16:23:00,
2013-02-22 11:28:00,79.1,67.6,30.07,ENE,78,5.0,5.0,68,0.00,,,0.00,Wunderground v.1.15,2013-02-22 16:28:00,
2013-02-22 11:33:00,78.6,67.6,30.07,ENE,70,1.0,4.0,69,0.00,,,0.00,Wunderground v.1.15,2013-02-22 16:33:00,
2013-02-22 11:38:00,78.3,67.7,30.07,NNE,30,2.0,4.0,70,0.00,,,0.00,Wunderground v.1.15,2013-02-22 16:38:00,
2013-02-22 11:43:00,78.5,67.9,30.07,ESE,113,2.0,5.0,70,0.00,,,0.00,Wunderground v.1.15,2013-02-22 16:43:00,
2013-02-22 11:48:00,78.7,67.7,30.07,East,88,6.0,7.0,69,0.00,,,0.00,Wunderground v.1.15,2013-02-22 16:48:00,
2013-02-22 11:53:00,78.5,67.9,30.06,East,82,3.0,5.0,70,0.00,,,0.00,Wunderground v.1.15,2013-02-22 16:53:00,
2013-02-22 11:58:00,78.8,67.8,30.07,SSW,200,1.0,6.0,69,0.00,,,0.00,Wunderground v.1.15,2013-02-22 16:58:00,
2013-02-22 12:04:00,78.7,68.1,30.06,ENE,65,5.0,5.0,70,0.00,,,0.00,Wunderground v.1.15,2013-02-22 17:04:00,
2013-02-22 12:09:00,78.6,68.4,30.06,ESE,122,0.0,7.0,71,0.00,,,0.00,Wunderground v.1.15,2013-02-22 17:09:00,
2013-02-22 12:14:00,78.0,68.2,30.06,South,191,2.0,8.0,72,0.00,,,0.00,Wunderground v.1.15,2013-02-22 17:14:00,
2013-02-22 12:19:00,77.8,68.0,30.06,SSW,205,1.0,8.0,72,0.00,,,0.00,Wunderground v.1.15,2013-02-22 17:19:00,
2013-02-22 12:24:00,77.9,67.7,30.06,ENE,70,2.0,8.0,71,0.00,,,0.00,Wunderground v.1.15,2013-02-22 17:24:00,
2013-02-22 12:29:00,78.0,67.8,30.06,ENE,74,4.0,8.0,71,0.00,,,0.00,Wunderground v.1.15,2013-02-22 17:29:00,
2013-02-22 12:34:00,77.8,68.0,30.05,NNW,340,1.0,5.0,72,0.00,,,0.00,Wunderground v.1.15,2013-02-22 17:34:00,
2013-02-22 12:39:00,78.3,68.9,30.05,ESE,107,2.0,6.0,73,0.00,,,0.00,Wunderground v.1.15,2013-02-22 17:39:00,
2013-02-22 12:44:00,78.4,68.2,30.05,NNE,25,4.0,6.0,71,0.00,,,0.00,Wunderground v.1.15,2013-02-22 17:44:00,
2013-02-22 12:49:00,78.0,68.2,30.04,ESE,105,2.0,8.0,72,0.00,,,0.00,Wunderground v.1.15,2013-02-22 17:49:00,
2013-02-22 12:54:00,78.5,68.3,30.04,SSE,166,1.0,3.0,71,0.00,,,0.00,Wunderground v.1.15,2013-02-22 17:54:00,
2013-02-22 12:59:00,79.1,68.1,30.04,East,94,2.0,4.0,69,0.00,,,0.00,Wunderground v.1.15,2013-02-22 17:59:00,
2013-02-22 13:04:00,78.9,68.3,30.04,ESE,111,2.0,4.0,70,0.00,,,0.00,Wunderground v.1.15,2013-02-22 18:04:00,
2013-02-22 13:09:00,78.5,68.7,30.04,East,98,4.0,9.0,72,0.00,,,0.00,Wunderground v.1.15,2013-02-22 18:09:00,
2013-02-22 13:14:00,78.1,68.3,30.03,ESE,113,2.0,8.0,72,0.00,,,0.00,Wunderground v.1.15,2013-02-22 18:14:00,
2013-02-22 13:19:00,78.5,68.3,30.03,SSW,212,0.0,8.0,71,0.00,,,0.00,Wunderground v.1.15,2013-02-22 18:19:00,
2013-02-22 13:24:00,78.7,67.7,30.03,East,94,3.0,6.0,69,0.00,,,0.00,Wunderground v.1.15,2013-02-22 18:24:00,
2013-02-22 13:29:00,78.3,68.1,30.02,NE,44,4.0,7.0,71,0.00,,,0.00,Wunderground v.1.15,2013-02-22 18:29:00,
2013-02-22 13:34:00,78.1,67.9,30.02,ENE,63,1.0,8.0,71,0.00,,,0.00,Wunderground v.1.15,2013-02-22 18:34:00,
2013-02-22 13:39:00,78.1,68.3,30.02,NNE,26,5.0,11.0,72,0.00,,,0.00,Wunderground v.1.15,2013-02-22 18:39:00,
2013-02-22 13:44:00,77.6,67.4,30.03,NE,50,0.0,9.0,71,0.00,,,0.00,Wunderground v.1.15,2013-02-22 18:44:00,
2013-02-22 13:49:00,77.5,68.2,30.02,NNE,32,0.0,9.0,73,0.00,,,0.00,Wunderground v.1.15,2013-02-22 18:49:00,
2013-02-22 13:54:00,77.6,67.9,30.02,NE,34,4.0,10.0,72,0.00,,,0.00,Wunderground v.1.15,2013-02-22 18:54:00,
2013-02-22 13:59:00,77.3,68.0,30.02,SSE,148,0.0,10.0,73,0.00,,,0.00,Wunderground v.1.15,2013-02-22 18:59:00,
2013-02-22 14:04:00,77.4,68.1,30.02,ENE,63,6.0,7.0,73,0.00,,,0.00,Wunderground v.1.15,2013-02-22 19:04:00,
2013-02-22 14:09:00,77.2,67.9,30.02,SSE,166,1.0,8.0,73,0.00,,,0.00,Wunderground v.1.15,2013-02-22 19:09:00,
2013-02-22 14:14:00,76.8,68.3,30.03,SE,135,2.0,12.0,75,0.00,,,0.00,Wunderground v.1.15,2013-02-22 19:14:00,
2013-02-22 14:19:00,76.5,68.4,30.02,WSW,249,0.0,12.0,76,0.00,,,0.00,Wunderground v.1.15,2013-02-22 19:19:00,
2013-02-22 14:24:00,76.4,68.3,30.02,WNW,293,0.0,9.0,76,0.00,,,0.00,Wunderground v.1.15,2013-02-22 19:24:00,
2013-02-22 14:29:00,76.5,68.0,30.02,West,281,1.0,9.0,75,0.00,,,0.00,Wunderground v.1.15,2013-02-22 19:29:00,
2013-02-22 14:34:00,76.4,67.9,30.02,NNW,329,0.0,9.0,75,0.00,,,0.00,Wunderground v.1.15,2013-02-22 19:34:00,
2013-02-22 14:39:00,76.3,67.8,30.02,NE,48,2.0,10.0,75,0.00,,,0.00,Wunderground v.1.15,2013-02-22 19:39:00,
2013-02-22 14:44:00,76.1,68.0,30.02,ENE,65,8.0,10.0,76,0.00,,,0.00,Wunderground v.1.15,2013-02-22 19:44:00,
2013-02-22 14:49:00,76.0,67.9,30.02,SE,131,1.0,10.0,76,0.00,,,0.00,Wunderground v.1.15,2013-02-22 19:49:00,
2013-02-22 14:54:00,75.7,67.6,30.02,ENE,59,1.0,8.0,76,0.00,,,0.00,Wunderground v.1.15,2013-02-22 19:54:00,
2013-02-22 14:59:00,75.6,67.9,30.02,SW,233,2.0,8.0,77,0.00,,,0.00,Wunderground v.1.15,2013-02-22 19:59:00,
2013-02-22 15:04:00,75.5,67.8,30.02,ENE,63,3.0,6.0,77,0.00,,,0.00,Wunderground v.1.15,2013-02-22 20:04:00,
2013-02-22 15:09:00,75.2,67.5,30.02,SE,136,0.0,9.0,77,0.00,,,0.00,Wunderground v.1.15,2013-02-22 20:09:00,
2013-02-22 15:14:00,75.0,67.7,30.02,East,94,2.0,7.0,78,0.00,,,0.00,Wunderground v.1.15,2013-02-22 20:14:00,
2013-02-22 15:19:00,75.0,67.7,30.02,NW,316,0.0,7.0,78,0.00,,,0.00,Wunderground v.1.15,2013-02-22 20:19:00,
2013-02-22 15:24:00,75.2,67.5,30.01,NE,53,0.0,8.0,77,0.00,,,0.00,Wunderground v.1.15,2013-02-22 20:24:00,
2013-02-22 15:29:00,75.3,67.6,30.02,WNW,290,0.0,8.0,77,0.00,,,0.00,Wunderground v.1.15,2013-02-22 20:29:00,
2013-02-22 15:34:00,75.1,67.4,30.02,NE,39,2.0,8.0,77,0.00,,,0.00,Wunderground v.1.15,2013-02-22 20:34:00,
2013-02-22 15:39:00,74.7,67.4,30.01,WNW,287,2.0,8.0,78,0.00,,,0.00,Wunderground v.1.15,2013-02-22 20:39:00,
2013-02-22 15:44:00,74.6,67.7,30.01,SE,134,0.0,6.0,79,0.00,,,0.00,Wunderground v.1.15,2013-02-22 20:44:00,
2013-02-22 15:49:00,74.7,67.8,30.01,SSW,204,0.0,6.0,79,0.00,,,0.00,Wunderground v.1.15,2013-02-22 20:49:00,
2013-02-22 15:54:00,74.8,67.8,30.01,ENE,58,3.0,4.0,79,0.00,,,0.00,Wunderground v.1.15,2013-02-22 20:54:00,
2013-02-22 15:59:00,74.6,67.7,30.01,ENE,64,2.0,5.0,79,0.00,,,0.00,Wunderground v.1.15,2013-02-22 20:59:00,
2013-02-22 16:04:00,74.6,67.7,30.01,NNE,30,0.0,6.0,79,0.00,,,0.00,Wunderground v.1.15,2013-02-22 21:04:00,
2013-02-22 16:09:00,74.5,67.9,30.01,ESE,120,2.0,6.0,80,0.00,,,0.00,Wunderground v.1.15,2013-02-22 21:09:00,
2013-02-22 16:14:00,74.5,67.9,30.01,SSE,152,0.0,6.0,80,0.00,,,0.00,Wunderground v.1.15,2013-02-22 21:14:00,
2013-02-22 16:20:00,74.5,67.9,30.01,East,86,2.0,2.0,80,0.00,,,0.00,Wunderground v.1.15,2013-02-22 21:20:00,
2013-02-22 16:24:00,74.5,67.9,30.01,NE,56,2.0,5.0,80,0.00,,,0.00,Wunderground v.1.15,2013-02-22 21:24:00,
2013-02-22 16:29:00,74.1,67.5,30.01,East,90,3.0,7.0,80,0.00,,,0.00,Wunderground v.1.15,2013-02-22 21:29:00,
2013-02-22 16:34:00,73.9,67.7,30.01,ENE,75,0.0,4.0,81,0.00,,,0.00,Wunderground v.1.15,2013-02-22 21:34:00,
2013-02-22 16:39:00,73.8,67.6,30.01,East,89,2.0,4.0,81,0.00,,,0.00,Wunderground v.1.15,2013-02-22 21:39:00,
2013-02-22 16:44:00,73.5,67.7,30.01,NNE,23,2.0,5.0,82,0.00,,,0.00,Wunderground v.1.15,2013-02-22 21:44:00,
2013-02-22 16:50:00,73.4,67.6,30.01,SE,137,0.0,5.0,82,0.00,,,0.00,Wunderground v.1.15,2013-02-22 21:50:00,
2013-02-22 16:55:00,73.6,67.8,30.00,ENE,68,5.0,6.0,82,0.00,,,0.00,Wunderground v.1.15,2013-02-22 21:55:00,
2013-02-22 17:00:00,73.5,67.7,30.00,SSW,193,1.0,2.0,82,0.00,,,0.00,Wunderground v.1.15,2013-02-22 22:00:00,
2013-02-22 17:05:00,73.4,67.9,30.00,NNW,346,4.0,7.0,83,0.00,,,0.00,Wunderground v.1.15,2013-02-22 22:05:00,
2013-02-22 17:10:00,73.2,67.7,30.00,ENE,62,1.0,2.0,83,0.00,,,0.00,Wunderground v.1.15,2013-02-22 22:10:00,
2013-02-22 17:15:00,73.0,67.5,30.00,ENE,66,3.0,8.0,83,0.00,,,0.00,Wunderground v.1.15,2013-02-22 22:15:00,
2013-02-22 17:20:00,73.0,67.9,30.00,NE,41,3.0,5.0,84,0.00,,,0.00,Wunderground v.1.15,2013-02-22 22:20:00,
2013-02-22 17:25:00,72.9,67.8,30.00,NE,50,1.0,7.0,84,0.00,,,0.00,Wunderground v.1.15,2013-02-22 22:25:00,